sat.trackr.live / text

‹ back to catalog

STARLINK-37603

NORAD 69846 · 2026-154AD

PAYLOAD ACTIVE UNKNOWN

§ Identity

Operator
Country
US
Launch date
2026-07-05
Launch site
AFETR
Launch vehicle
Mass (kg)
RCS (m²)

Purposes: comms

External: N2YO · Heavens-Above · Gunter

§ Orbital elements

Epoch: 2026-09-20T04:23:18.438720Z

Period
93.85 min
Inclination
53.1621°
Eccentricity
0.0001018
Mean motion
15.34380705 rev/d
Perigee alt
462.1 km
Apogee alt
463.5 km
Semi-major
6,840.9 km
B*
-8.0678e-5
RAAN
332.8745°
Arg perigee
76.0698°
Mean anomaly
284.0418°
Rev number
1,319

§ Raw data

STARLINK-376031 69846U 26154AD  26263.18285230 -.00003099  00000+0 -80678-4 0  99942 69846  53.1621 332.8745 0001018  76.0698 284.0418 15.34380705 13198

JSON: /api/v1/satellites/69846 · /tle

For live sub-satellite position, see the globe view (requires WebGL).

§ Visibility from observer

Set your observer location to see the next 7 days of passes ≥ 10°. The values pass through the URL so the page stays shareable.

No JS? Fill the form by hand. The geolocation button needs JavaScript.